Location: Ariel
(45.9570°N, 122.5700°W)
Time: 15:58:48
(UTC-07:00)

Transit 4A - Pass Details

Date: 27 July 2019
Orbit: 863 x 981 km, 66.8° (Epoch: 18 August)

Event Time Altitude Azimuth Distance (km) Brightness Sun altitude
Rises 03:42:37 0° 267° (W) 3,676 - -16.9°
Exits shadow 03:43:54 - 273° (W) 3,296 10.4 -16.8°
Reaches altitude 10° 03:46:00 10° 284° (WNW) 2,736 10.1 -16.6°
Maximum altitude 03:50:31 20° 330° (NNW) 2,120 10.0 -16.1°
Drops below altitude 10° 03:55:03 10° 15° (NNE) 2,735 11.4 -15.6°
Sets 03:58:27 0° 32° (NNE) 3,674 12.9 -15.3°
